星链-1817 (STARLINK-1817 )

导读

STARLINK-1817是美国太空探索技术公司(SpaceX)星链(Starlink)项目的低轨互联网卫星,于2020年10月18日发射入轨。作为星链星座的组成部分,它旨在为全球提供高速宽带互联网服务,尤其覆盖偏远地区,依托低轨轨道减少传输延迟,支撑用户的通信、上网等需求,是太空互联网基础设施建设的重要一环。

基本信息
目录编号:
46715
目录名称:
STARLINK-1817
国际标识:
2020-073AX
轨道中心:
EARTH
卫星名称:
星链-1817
卫星全名:
星链-1817 (STARLINK-1817 )
卫星状态:
在轨 (已飞行2065 天)
发射日期:
2020-10-18 UTC
国别 :
美国 (US)
星等 :
--
轨道信息
数据来源 国际轨道数据
星历时间: 2026-06-15T00:00:02+0800
4小时前
查看轨道信息
半长轴: 6682.11km
偏心率: 0.0002693
轨道倾角: 53.041°
近地点辐角 185.333°
升交点赤经 96.295°
平近点角 257.803°
近地点: 302.173km
远地点: 305.773km
周期: 90.600分钟
每日圈数: 15.89397
详细信息
固有亮度:
5
最大亮度:
2.5
卫星平台:
Starlink V1.0
覆盖范围:
全球
运营商:
太空探索技术公司
运营商所在国:
美国
制造商(研发单位):
太空探索技术公司
制造商所在国:
美国
使用方式:
暂无
卫星简介
星链(Starlink)计划是由太空探索技术公司(SpaceX)提出的一个巨型低轨卫星互联网星座项目,计划在2019年至2024年间在太空搭建由约1.2万颗卫星组成的“星链”网络,其中1584颗将部署在地球上空550千米处的近地轨道,并从2020年开始工作。该卫星仍在工作。
2D轨道图
3D轨道图
轨道高度分析图
轨道倾角分析图
轨道综合分析图
查看轨道综合分析图